• Em Portugal
  • Lista de países
  • Para 7 dias
  • Temperatura da água
  • Mapas de satélite
  • Mapa do tempo
  • Widgets de tempo
  • user-avatar
    Iniciar Sessão

    Previsão horária em Babruysk

    Hoje, 18 Outubro, Quinta-feira

    Tempo Temperatura Precipitação Vento Pressão Humidade
    00:00 +13°C° 0 mm 1 m/s 755 mmHg 82%
    01:00 +13°C° 0 mm 1 m/s 755 mmHg 83%
    02:00 +13°C° 0 mm 1 m/s 755 mmHg 85%
    03:00 +13°C° 0 mm 1 m/s 755 mmHg 86%
    04:00 +12°C° 0 mm 1 m/s 754 mmHg 87%
    05:00 +12°C° 0 mm 1 m/s 754 mmHg 88%
    06:00 +12°C° 0 mm 1 m/s 754 mmHg 87%
    07:00 +13°C° 0 mm 1 m/s 754 mmHg 85%
    08:00 +13°C° 0 mm 1 m/s 754 mmHg 84%
    09:00 +15°C° 0 mm 1 m/s 754 mmHg 76%
    10:00 +18°C° 0 mm 1 m/s 754 mmHg 68%
    11:00 +19°C° 0 mm 2 m/s 754 mmHg 61%
    12:00 +20°C° 0 mm 2 m/s 753 mmHg 58%
    13:00 +21°C° 0 mm 2 m/s 753 mmHg 56%
    14:00 +21°C° 0 mm 2 m/s 752 mmHg 54%
    15:00 +20°C° 0 mm 2 m/s 752 mmHg 60%
    16:00 +19°C° 0 mm 2 m/s 752 mmHg 66%
    17:00 +18°C° 0 mm 1 m/s 751 mmHg 72%
    18:00 +16°C° 0 mm 1 m/s 751 mmHg 76%
    19:00 +15°C° 0 mm 1 m/s 751 mmHg 79%
    20:00 +15°C° 0 mm 1 m/s 751 mmHg 83%
    21:00 +14°C° 0 mm 1 m/s 751 mmHg 84%
    22:00 +14°C° 0 mm 1 m/s 751 mmHg 86%
    23:00 +13°C° 0 mm 1 m/s 751 mmHg 87%

    Amanhã, 19 Outubro, Sexta-feira

    Tempo Temperatura Precipitação Vento Pressão Humidade
    00:00 +13°C° 0 mm 1 m/s 751 mmHg 88%
    01:00 +13°C° 0 mm 1 m/s 750 mmHg 88%
    02:00 +12°C° 0 mm 1 m/s 750 mmHg 89%
    03:00 +12°C° 0 mm 1 m/s 750 mmHg 89%
    04:00 +11°C° 0 mm 1 m/s 750 mmHg 89%
    05:00 +11°C° 0 mm 1 m/s 750 mmHg 90%
    06:00 +11°C° 0 mm 1 m/s 750 mmHg 88%
    07:00 +12°C° 0 mm 1 m/s 750 mmHg 86%
    08:00 +11°C° 0 mm 0 m/s 750 mmHg 84%
    09:00 +14°C° 0 mm 1 m/s 750 mmHg 76%
    10:00 +16°C° 0 mm 1 m/s 750 mmHg 68%
    11:00 +19°C° 0 mm 1 m/s 750 mmHg 61%
    12:00 +19°C° 0 mm 1 m/s 750 mmHg 58%
    13:00 +20°C° 0 mm 1 m/s 750 mmHg 56%
    14:00 +19°C° 0 mm 2 m/s 750 mmHg 54%
    15:00 +18°C° 0 mm 2 m/s 750 mmHg 60%
    16:00 +16°C° 0 mm 2 m/s 750 mmHg 66%
    17:00 +15°C° 0 mm 2 m/s 750 mmHg 72%
    18:00 +14°C° 0 mm 2 m/s 750 mmHg 76%
    19:00 +12°C° 0 mm 3 m/s 751 mmHg 80%
    20:00 +11°C° 0 mm 3 m/s 751 mmHg 84%
    21:00 +11°C° 0 mm 3 m/s 752 mmHg 86%
    22:00 +10°C° 0 mm 3 m/s 752 mmHg 88%
    23:00 +10°C° 0 mm 3 m/s 752 mmHg 90%

    Depois de amanhã, 20 Outubro, Sábado

    Tempo Temperatura Precipitação Vento Pressão Humidade
    00:00 +9°C° 0 mm 3 m/s 752 mmHg 91%
    01:00 +8°C° 0 mm 3 m/s 753 mmHg 92%
    02:00 +8°C° 0 mm 3 m/s 753 mmHg 93%
    03:00 +7°C° 0 mm 2 m/s 753 mmHg 93%
    04:00 +7°C° 0 mm 2 m/s 753 mmHg 93%
    05:00 +6°C° 0 mm 2 m/s 753 mmHg 92%
    06:00 +6°C° 0 mm 2 m/s 753 mmHg 90%
    07:00 +6°C° 0 mm 2 m/s 754 mmHg 88%
    08:00 +6°C° 0 mm 2 m/s 754 mmHg 86%
    09:00 +8°C° 0 mm 2 m/s 754 mmHg 77%
    10:00 +9°C° 0 mm 2 m/s 755 mmHg 68%
    11:00 +12°C° 0 mm 2 m/s 755 mmHg 58%
    12:00 +12°C° 0 mm 2 m/s 754 mmHg 55%
    13:00 +13°C° 0 mm 2 m/s 754 mmHg 51%
    14:00 +13°C° 0 mm 2 m/s 754 mmHg 47%
    15:00 +12°C° 0 mm 2 m/s 754 mmHg 52%
    16:00 +11°C° 0 mm 1 m/s 754 mmHg 56%
    17:00 +9°C° 0 mm 1 m/s 754 mmHg 61%
    18:00 +9°C° 0 mm 1 m/s 754 mmHg 64%
    19:00 +8°C° 0 mm 1 m/s 754 mmHg 67%
    20:00 +8°C° 0 mm 1 m/s 754 mmHg 70%
    21:00 +7°C° 0 mm 1 m/s 754 mmHg 72%
    22:00 +7°C° 0 mm 1 m/s 754 mmHg 74%
    23:00 +7°C° 0 mm 1 m/s 754 mmHg 76%

    21 Outubro, Domingo

    Tempo Temperatura Precipitação Vento Pressão Humidade
    00:00 +5°C° 0 mm 2 m/s 753 mmHg 78%
    01:00 +5°C° 0 mm 2 m/s 753 mmHg 81%
    02:00 +5°C° 0 mm 2 m/s 753 mmHg 83%
    03:00 +5°C° 0 mm 2 m/s 753 mmHg 84%
    04:00 +6°C° 0 mm 2 m/s 753 mmHg 84%
    05:00 +6°C° 0 mm 2 m/s 752 mmHg 85%
    06:00 +6°C° 0.1 mm 2 m/s 752 mmHg 86%
    07:00 +6°C° 0.1 mm 2 m/s 752 mmHg 86%
    08:00 +7°C° 0.1 mm 2 m/s 753 mmHg 87%
    09:00 +7°C° 0.1 mm 2 m/s 753 mmHg 85%
    10:00 +8°C° 0.1 mm 3 m/s 753 mmHg 82%
    11:00 +8°C° 0.1 mm 3 m/s 753 mmHg 79%
    12:00 +9°C° 0.1 mm 3 m/s 753 mmHg 77%
    13:00 +9°C° 0.1 mm 3 m/s 753 mmHg 75%
    14:00 +9°C° 0.1 mm 3 m/s 754 mmHg 73%
    15:00 +8°C° 0.1 mm 3 m/s 754 mmHg 76%
    16:00 +8°C° 0.1 mm 2 m/s 754 mmHg 80%
    17:00 +7°C° 0.1 mm 2 m/s 754 mmHg 83%
    18:00 +6°C° 0 mm 2 m/s 754 mmHg 84%
    19:00 +5°C° 0 mm 2 m/s 755 mmHg 86%
    20:00 +5°C° 0 mm 2 m/s 755 mmHg 88%
    21:00 +4°C° 0 mm 2 m/s 755 mmHg 88%
    22:00 +4°C° 0 mm 2 m/s 755 mmHg 89%
    23:00 +4°C° 0 mm 2 m/s 755 mmHg 89%

    22 Outubro, Segunda-feira

    Tempo Temperatura Precipitação Vento Pressão Humidade
    00:00 +4°C° 0 mm 1 m/s 755 mmHg 90%
    01:00 +4°C° 0 mm 1 m/s 755 mmHg 90%
    02:00 +4°C° 0 mm 1 m/s 755 mmHg 90%
    03:00 +4°C° 0 mm 1 m/s 755 mmHg 91%
    04:00 +3°C° 0 mm 0 m/s 755 mmHg 91%
    05:00 +2°C° 0 mm 0 m/s 755 mmHg 91%
    06:00 +3°C° 0 mm 0 m/s 755 mmHg 89%
    07:00 +4°C° 0 mm 1 m/s 755 mmHg 88%
    08:00 +5°C° 0 mm 1 m/s 755 mmHg 87%
    09:00 +6°C° 0 mm 1 m/s 755 mmHg 79%
    10:00 +7°C° 0 mm 2 m/s 755 mmHg 71%
    11:00 +9°C° 0 mm 2 m/s 755 mmHg 64%
    12:00 +9°C° 0 mm 2 m/s 754 mmHg 61%
    13:00 +10°C° 0 mm 3 m/s 754 mmHg 58%
    14:00 +11°C° 0 mm 3 m/s 753 mmHg 55%
    15:00 +10°C° 0 mm 3 m/s 753 mmHg 60%
    16:00 +8°C° 0 mm 3 m/s 752 mmHg 66%
    17:00 +7°C° 0 mm 2 m/s 752 mmHg 71%
    18:00 +7°C° 0 mm 3 m/s 752 mmHg 73%
    19:00 +5°C° 0 mm 3 m/s 752 mmHg 75%
    20:00 +5°C° 0 mm 3 m/s 752 mmHg 77%
    21:00 +5°C° 0.3 mm 3 m/s 751 mmHg 79%
    22:00 +7°C° 0.3 mm 3 m/s 751 mmHg 82%
    23:00 +7°C° 0.3 mm 3 m/s 751 mmHg 85%

    23 Outubro, Terça-feira

    Tempo Temperatura Precipitação Vento Pressão Humidade
    00:00 +7°C° 0.6 mm 3 m/s 750 mmHg 88%
    01:00 +7°C° 0.6 mm 2 m/s 750 mmHg 91%
    02:00 +7°C° 0.6 mm 2 m/s 750 mmHg 94%
    03:00 +6°C° 0.1 mm 2 m/s 749 mmHg 95%
    04:00 +6°C° 0.1 mm 2 m/s 749 mmHg 96%
    05:00 +6°C° 0.1 mm 2 m/s 749 mmHg 97%
    06:00 +7°C° 0 mm 1 m/s 748 mmHg 96%
    07:00 +7°C° 0 mm 1 m/s 748 mmHg 95%
    08:00 +7°C° 0 mm 1 m/s 748 mmHg 94%
    09:00 +8°C° 0 mm 1 m/s 747 mmHg 89%
    10:00 +8°C° 0 mm 1 m/s 747 mmHg 84%
    11:00 +8°C° 0 mm 0 m/s 746 mmHg 79%
    12:00 +10°C° 0 mm 1 m/s 746 mmHg 77%
    13:00 +10°C° 0 mm 1 m/s 745 mmHg 75%
    14:00 +10°C° 0 mm 1 m/s 745 mmHg 73%
    15:00 +10°C° 0 mm 1 m/s 744 mmHg 75%
    16:00 +9°C° 0 mm 1 m/s 744 mmHg 78%
    17:00 +8°C° 0 mm 1 m/s 744 mmHg 81%
    18:00 +8°C° 0 mm 1 m/s 744 mmHg 83%
    19:00 +7°C° 0 mm 1 m/s 743 mmHg 85%
    20:00 +6°C° 0 mm 1 m/s 743 mmHg 87%
    21:00 +5°C° 0 mm 2 m/s 743 mmHg 88%
    22:00 +4°C° 0 mm 2 m/s 743 mmHg 89%
    23:00 +3°C° 0 mm 2 m/s 743 mmHg 90%
    Mostrar mais